User: anonymous   Login
Location: Unspecified
(0.0000°N, 0.0000°E)
Time: 16:43:09
(UTC+00:00)
Language:

USA 245 - Orbit

View from above orbital plane
View from above orbital plane
View from above satellite
View from above satellite

Ground track
Ground track

The orbit data is extracted from the following two-line orbital elements,

1 39232U 13043A   17085.84778590 0.00003000  00000-0  32121-4 0    08
2 39232  97.8949 149.6264 0525656 268.6990  91.3008 14.77505377    05
Epoch (UTC): 26 March 2017 20:20:48
Eccentricity: 0.0525656
inclination: 97.8949°
perigee height: 268 km
apogee height: 1006 km
right ascension of ascending node: 149.6264°
argument of perigee: 268.6990°
revolutions per day: 14.77505377
mean anomaly at epoch: 91.3008°
orbit number at epoch: 0

The dashed part of the orbit path shows where the satellite is in the earth's shadow,  

DLR